Location: Newark
(22.3060°N, 114.2134°E)
Time: 18:52:31
(UTC+00:00)

Explorer 11/Cluster Stage 4 - Pass Details

Date: 04 August 2021
Orbit: 467 x 1256 km, 28.8° (Epoch: 27 September)

Event Time Altitude Azimuth Distance (km) Brightness Sun altitude
Rises 22:38:58 0° 246° (WSW) 3,464 9.2 8.5°
Reaches altitude 10° 22:41:20 10° 245° (WSW) 2,638 8.7 9.1°
Maximum altitude 22:47:54 82° 159° (SSE) 1,089 7.5 10.5°
Drops below altitude 10° 22:55:49 10° 72° (ENE) 3,138 12.8 12.3°
Sets 22:58:51 0° 71° (ENE) 4,157 12.3 13.0°
